[[{"header":{"parameterUnit":"m.s-1","parameterCategory":2,"la1":30.2991,"la2":30.254,"lo1":-89.0895,"lo2":-89.0444,"dy":0.0017,"dx":0.0017,"nx":28,"ny":28,"refTime":"2024-07-28T21:00:00:Z","depth":"0","parameterNumber":2,"parameterNumberName":"U-component_of_CURRENTS"},"data":[0,0,0,0,0,0,0,0,0,0,0,0,0,0,0,0,0,0,0,0,0,0,0,0,0,0,0,0,0,0,0,0,0,0,0,0,0,0,0,0,0,0,0,0,0,0,0,0,0,0,0,0,0,0,0,0,0,0,0.2875,0.2877,0,0.2954,0.2955,0.2955,0.2971,0.2971,0.2971,0.2971,0.2951,0.295,0.295,0,0,0,0,0,0,0,0,0,0,0,0,0,0.2739,0.2741,0.2875,0.2877,0.2878,0.2954,0.2955,0.2955,0.2971,0.2971,0.2971,0.2971,0.2951,0.295,0.295,0,0,0,0,0,0,0,0,0,0,0,0,0,0.2802,0.2742,0.2875,0.2899,0.2902,0.2954,0.2955,0.2956,0.2971,0.2971,0.2971,0.2971,0.2951,0.2951,0.295,0.2952,0,0,0.2948,0.2948,0,0,0,0,0,0,0,0,0.2798,0.2806,0.2894,0.2897,0.2901,0.2957,0.29,0.2951,0.2971,0.294,0.2971,0.297,0.2947,0.2947,0.2957,0.2951,0.295,0.2948,0.2948,0.2948,0.2948,0,0,0,0,0,0,0,0.2794,0.2803,0.2902,0.2895,0.29,0.2906,0.2914,0.291,0.2938,0.2943,0.2945,0.2961,0.2947,0.2957,0.2956,0.295,0.2948,0.2948,0.2947,0.2947,0.3001,0.3003,0,0,0,0,0,0,0.2794,0.2799,0.2899,0.2905,0.2853,0.2909,0.2918,0.2935,0.2941,0.2944,0.2962,0.2962,0.2959,0.2957,0.2956,0.3005,0.2948,0.2947,0.2947,0.2999,0.3001,0.3003,0,0,0,0,0,0,0.2791,0.2802,0.2896,0.2857,0.287,0.2912,0.2931,0.2937,0.2953,0.2957,0.2957,0.2972,0.2958,0.2956,0.2974,0.3002,0.2947,0.2946,0.2997,0.3,0.3002,0.3073,0,0,0,0,0,0,0.2786,0.28,0.2807,0.2857,0.2872,0.2928,0.2932,0.2939,0.2965,0.2966,0.2966,0.2964,0.2958,0.2975,0.2974,0.3,0.2946,0.2995,0.2998,0.3001,0.3068,0.3077,0.3085,0,0,0,0,0,0.2781,0.2792,0.2807,0.2819,0.2882,0.2929,0.2937,0.2962,0.2966,0.2974,0.2989,0.2964,0.2995,0.2976,0.2974,0.3001,0.2993,0.2997,0.3001,0.3064,0.3076,0.3085,0,0,0,0,0,0,0.2737,0.2797,0.2814,0.2843,0.2885,0.2934,0.2943,0.2966,0.2985,0.2981,0.2983,0.2983,0.3006,0.2997,0.2977,0.3028,0.2991,0.2995,0.304,0.305,0.3059,0.3015,0.2946,0,0,0,0,0,0.2733,0.2754,0.2814,0.2836,0.2855,0.29,0.292,0.2943,0.2972,0.298,0.2987,0.2998,0.3021,0.303,0.3033,0.306,0.3101,0.3078,0.3087,0.3094,0.3059,0.3153,0.3167,0.3016,0.3016,0.3016,0,0,0.2716,0.2758,0.2766,0.2828,0.2857,0.2889,0.291,0.2942,0.2967,0.2973,0.2994,0.3017,0.3033,0.3068,0.3078,0.3065,0.318,0.3099,0.3105,0.3065,0.3159,0.3173,0.3186,0.3019,0.3018,0.3018,0,0,0.271,0.2736,0.2757,0.2792,0.2848,0.2878,0.289,0.2942,0.2958,0.299,0.3014,0.3054,0.307,0.3106,0.3123,0.3178,0.3215,0.3189,0.3203,0.3298,0.3311,0.3322,0.3484,0.3509,0.3203,0.3203,0.3203,0,0.2688,0.2737,0.2768,0.2804,0.2835,0.2873,0.2906,0.2928,0.298,0.3006,0.2995,0.3076,0.3084,0.3162,0.3181,0.3194,0.3277,0.3166,0.331,0.3321,0.3331,0.3493,0.352,0.3207,0.3206,0.3206,0.3205,0,0.2713,0.2744,0.2758,0.2816,0.2845,0.2879,0.2922,0.2948,0.297,0.3006,0.307,0.3105,0.3159,0.3185,0.3189,0.3284,0.3336,0.3307,0.3283,0.3351,0.3519,0.3545,0.3212,0.3211,0.321,0.3209,0,0,0.2705,0.2762,0.2771,0.28,0.2859,0.2891,0.2921,0.2983,0.3027,0.3057,0.3126,0.3168,0.32,0.322,0.3265,0.3332,0.3508,0.3347,0.335,0.3506,0.3787,0.3801,0.3833,0.3516,0.3518,0.352,0.3908,0,0.2726,0.278,0.2807,0.2856,0.2893,0.2927,0.2962,0.3012,0.3057,0.3124,0.3171,0.3245,0.3216,0.3276,0.3332,0.3451,0.3565,0.3408,0.3694,0.3703,0.3705,0.3857,0.3741,0.4071,0.3934,0.3939,0.3942,0,0.278,0.2805,0.2848,0.2902,0.292,0.2947,0.3027,0.3064,0.3149,0.3188,0.3255,0.3305,0.3418,0.3374,0.3606,0.3517,0.3645,0.3732,0.3749,0.3732,0.3762,0.3962,0.4124,0.3964,0.3982,0.3979,0.3976,0,0.2807,0.2853,0.2884,0.2902,0.2954,0.298,0.3012,0.309,0.3143,0.3249,0.3322,0.3427,0.3536,0.3649,0.3809,0.3737,0.4079,0.4016,0.4169,0.4177,0.4109,0.4103,0.4128,0.419,0.4189,0.4188,0.4187,0,0.2857,0.2889,0.2896,0.2918,0.2963,0.2996,0.3067,0.3114,0.3207,0.3281,0.3364,0.3463,0.3603,0.3797,0.3893,0.4139,0.4173,0.4202,0.427,0.4141,0.4133,0.4009,0.3876,0.4203,0.42,0.4197,0.4194,0,0.2902,0.2909,0.2946,0.2971,0.2984,0.3018,0.3087,0.3128,0.3237,0.3345,0.3393,0.3569,0.3815,0.4,0.4259,0.43,0.4389,0.4581,0.4454,0.4495,0.4398,0.4273,0.4283,0.4169,0.4803,0.4806,0.4808,0,0.2932,0.2952,0.2971,0.2967,0.2976,0.3022,0.3042,0.3132,0.3175,0.3392,0.3435,0.3732,0.388,0.4307,0.4478,0.475,0.4546,0.4784,0.4569,0.4403,0.4316,0.4137,0.4024,0.4578,0.4578,0.4578,0.4578,0,0.296,0.2961,0.2961,0.2961,0.2968,0.2995,0.3033,0.3075,0.3183,0.3315,0.3487,0.364,0.4055,0.4253,0.4623,0.4749,0.4513,0.4791,0.4638,0.4149,0.3936,0.3856,0.4363,0.4579,0.4578,0.4578,0.4578,0.4578,0.2952,0.2947,0.2924,0.2925,0.2924,0.2923,0.2931,0.299,0.3086,0.3231,0.3427,0.3624,0.3964,0.4442,0.458,0.4674,0.4568,0.4541,0.4431,0.4291,0.4044,0.4575,0.4821,0.4822,0.4823,0.4824,0.4825,0,0.2897,0.2881,0.2878,0.2849,0.2814,0.2853,0.2874,0.2868,0.2936,0.3122,0.3293,0.3607,0.3845,0.4123,0.4367,0.43,0.4159,0.4179,0.3852,0.3777,0.4305,0.4148,0.4231,0.4231,0.4231,0.4231,0.4231,0.4231,0.2853,0.2812,0.281,0.273,0.2711,0.2655,0.2651,0.2677,0.2769,0.2916,0.3073,0.3275,0.3604,0.3878,0.3928,0.3892,0.3578,0.349,0.3418,0.3714,0.3736,0.3757,0.3579,0.354,0.3539,0.281,0.2803,0.2798]},{"header":{"parameterUnit":"m.s-1","parameterCategory":2,"la1":30.2991,"la2":30.254,"lo1":-89.0895,"lo2":-89.0444,"dy":0.0017,"dx":0.0017,"nx":28,"ny":28,"refTime":"2024-07-28T21:00:00:Z","depth":"0","parameterNumber":3,"parameterNumberName":"V-component_of_CURRENTS"},"data":[0,0,0,0,0,0,0,0,0,0,0,0,0,0,0,0,0,0,0,0,0,0,0,0,0,0,0,0,0,0,0,0,0,0,0,0,0,0,0,0,0,0,0,0,0,0,0,0,0,0,0,0,0,0,0,0,0,0,-0.0954,-0.0955,0,-0.1063,-0.1065,-0.1066,-0.1153,-0.1154,-0.1154,-0.1155,-0.1267,-0.1269,-0.1271,0,0,0,0,0,0,0,0,0,0,0,0,0,-0.0877,-0.0878,-0.0954,-0.0955,-0.0957,-0.1063,-0.1065,-0.1066,-0.1153,-0.1154,-0.1154,-0.1155,-0.1266,-0.1269,-0.1271,0,0,0,0,0,0,0,0,0,0,0,0,0,-0.0942,-0.0878,-0.0954,-0.1011,-0.1017,-0.1063,-0.1065,-0.1067,-0.1153,-0.1154,-0.1155,-0.1156,-0.1265,-0.1268,-0.1272,-0.1272,0,0,-0.1282,-0.1284,0,0,0,0,0,0,0,0,-0.0938,-0.0945,-0.1001,-0.1007,-0.1014,-0.1094,-0.1079,-0.1135,-0.1152,-0.1103,-0.1155,-0.1156,-0.1207,-0.1215,-0.1236,-0.1278,-0.1282,-0.1283,-0.1285,-0.1286,-0.1287,0,0,0,0,0,0,0,-0.0934,-0.0941,-0.0999,-0.1003,-0.101,-0.1051,-0.1061,-0.109,-0.1149,-0.1107,-0.1114,-0.1122,-0.1211,-0.1233,-0.1239,-0.1284,-0.1283,-0.1286,-0.1288,-0.1289,-0.1348,-0.1348,0,0,0,0,0,0,-0.0912,-0.0937,-0.0996,-0.1002,-0.0976,-0.1051,-0.1062,-0.1069,-0.1149,-0.1162,-0.1121,-0.1126,-0.1226,-0.1235,-0.1244,-0.1234,-0.1286,-0.129,-0.1292,-0.1349,-0.1348,-0.1348,0,0,0,0,0,0,-0.091,-0.0916,-0.0991,-0.0971,-0.0983,-0.105,-0.1057,-0.107,-0.1087,-0.1159,-0.1173,-0.1124,-0.1227,-0.1239,-0.1273,-0.1239,-0.1291,-0.1294,-0.1349,-0.1349,-0.1348,-0.1224,0,0,0,0,0,0,-0.0908,-0.0915,-0.0905,-0.0969,-0.0983,-0.0999,-0.1057,-0.1072,-0.1091,-0.1098,-0.1166,-0.1178,-0.1229,-0.1268,-0.1277,-0.1245,-0.1297,-0.135,-0.1349,-0.1348,-0.1229,-0.1219,-0.1211,0,0,0,0,0,-0.0904,-0.0879,-0.0904,-0.0911,-0.097,-0.0997,-0.1007,-0.1061,-0.1089,-0.1083,-0.1145,-0.1176,-0.1268,-0.127,-0.1281,-0.1249,-0.1351,-0.1349,-0.1348,-0.1233,-0.1221,-0.1211,0,0,0,0,0,0,-0.0827,-0.0887,-0.0916,-0.0907,-0.0942,-0.1011,-0.1006,-0.1047,-0.1091,-0.11,-0.1172,-0.1188,-0.1206,-0.1248,-0.1249,-0.1267,-0.1312,-0.1313,-0.1221,-0.121,-0.1201,-0.113,-0.13,0,0,0,0,0,-0.0808,-0.0811,-0.0871,-0.086,-0.0873,-0.0938,-0.0954,-0.0993,-0.1043,-0.1064,-0.1112,-0.1166,-0.1209,-0.1226,-0.127,-0.1274,-0.1266,-0.1262,-0.1253,-0.1245,-0.1196,-0.1198,-0.1183,-0.1344,-0.1344,-0.1344,0,0,-0.0769,-0.0806,-0.0804,-0.0845,-0.0878,-0.088,-0.095,-0.0964,-0.0964,-0.1067,-0.1073,-0.1135,-0.1207,-0.1221,-0.1231,-0.1249,-0.1188,-0.1244,-0.1236,-0.119,-0.1195,-0.1179,-0.1165,-0.1343,-0.1343,-0.1343,0,0,-0.0697,-0.073,-0.0711,-0.0739,-0.0784,-0.0825,-0.0822,-0.0882,-0.0905,-0.0926,-0.1003,-0.1038,-0.1101,-0.1139,-0.117,-0.1133,-0.1146,-0.1156,-0.1042,-0.1046,-0.1031,-0.1019,-0.0945,-0.0927,-0.1145,-0.1145,-0.1145,0,-0.0641,-0.0637,-0.0704,-0.0698,-0.0701,-0.0791,-0.0761,-0.08,-0.0862,-0.0856,-0.0909,-0.0978,-0.1053,-0.1052,-0.1053,-0.1106,-0.1087,-0.1076,-0.1029,-0.1017,-0.1006,-0.0935,-0.0916,-0.1139,-0.1139,-0.114,-0.114,0,-0.0566,-0.0561,-0.0547,-0.0572,-0.0586,-0.0574,-0.0636,-0.0644,-0.0686,-0.072,-0.0725,-0.0825,-0.0853,-0.0898,-0.0969,-0.0928,-0.0928,-0.102,-0.1045,-0.0981,-0.0911,-0.0894,-0.113,-0.1132,-0.1134,-0.1135,0,0,-0.0423,-0.0479,-0.047,-0.0456,-0.0515,-0.0506,-0.0506,-0.0508,-0.0467,-0.0543,-0.048,-0.0591,-0.063,-0.0666,-0.0756,-0.0769,-0.0693,-0.0848,-0.0851,-0.0749,-0.0628,-0.0623,-0.0604,-0.0782,-0.078,-0.0778,-0.0594,0,-0.0328,-0.0287,-0.0345,-0.0283,-0.0257,-0.0332,-0.0308,-0.0329,-0.0355,-0.0321,-0.0411,-0.04,-0.0548,-0.0545,-0.0584,-0.0673,-0.0648,-0.0729,-0.0725,-0.0722,-0.0708,-0.0586,-0.0622,-0.0462,-0.0577,-0.0575,-0.0573,0,-0.0219,-0.0209,-0.0138,-0.0124,-0.0113,-0.0088,-0.0041,-0.0035,-0.0041,-0.0054,-0.0071,-0.0141,-0.0161,-0.0305,-0.0364,-0.0408,-0.0481,-0.0553,-0.055,-0.0569,-0.0686,-0.0556,-0.0427,-0.0679,-0.0547,-0.0549,-0.0551,0,-0.0071,-0.005,0.0018,0.0018,0.0012,0.0058,0.0068,0.0068,0.0114,0.0137,0.0193,0.0123,0.0137,0.0008,-0.0155,-0.0248,-0.0196,-0.0356,-0.0393,-0.0391,-0.0427,-0.0434,-0.052,-0.0351,-0.0351,-0.0352,-0.0352,0,0.0056,0.0117,0.0102,0.0141,0.0257,0.0208,0.0335,0.0329,0.0374,0.047,0.0359,0.0438,0.0212,0.0183,-0.0011,-0.0103,-0.0076,-0.03,-0.0335,-0.0383,-0.0387,-0.0619,-0.0738,-0.0345,-0.0346,-0.0348,-0.0349,0,0.0197,0.0182,0.0267,0.0296,0.0325,0.0412,0.0491,0.0571,0.0604,0.0736,0.0763,0.0727,0.0686,0.0492,0.0333,0.0131,-0.0106,-0.004,-0.0035,-0.0074,-0.0407,-0.0516,-0.0521,-0.0594,-0.0047,-0.0046,-0.0045,0,0.0262,0.0317,0.039,0.0447,0.0468,0.0578,0.065,0.0688,0.0773,0.0911,0.0994,0.1024,0.1036,0.0854,0.0518,0.0281,0.0023,0.0087,-0.0132,-0.0357,-0.0506,-0.0595,-0.0665,-0.0106,-0.0105,-0.0105,-0.0104,0,0.0379,0.0405,0.0458,0.0577,0.067,0.0784,0.0895,0.1001,0.107,0.12,0.1344,0.1383,0.1221,0.0973,0.0667,0.0431,-0.008,0.0088,-0.0171,-0.0539,-0.0612,-0.0723,-0.0249,-0.01,-0.0101,-0.0101,-0.0101,-0.0101,0.0452,0.0515,0.0575,0.0695,0.0806,0.0955,0.107,0.1192,0.1369,0.1563,0.159,0.1689,0.1328,0.0885,0.0577,-0.0048,-0.0035,-0.0312,-0.0404,-0.0457,-0.0599,-0.0062,0.0032,0.0032,0.0033,0.0033,0.0033,0,0.0512,0.0571,0.068,0.0817,0.0952,0.1001,0.1197,0.1318,0.1528,0.1718,0.1851,0.1739,0.1273,0.0752,-0.0039,-0.0488,-0.0676,-0.074,-0.0931,-0.0967,-0.0517,-0.0603,-0.0614,-0.0613,-0.0613,-0.0613,-0.0613,-0.0612,0.0539,0.0634,0.069,0.0904,0.1016,0.1203,0.1322,0.1511,0.167,0.19,0.1977,0.2012,0.1593,0.0205,-0.0812,-0.1043,-0.1342,-0.1372,-0.1489,-0.1295,-0.1266,-0.1238,-0.1354,-0.1521,-0.1522,-0.1943,-0.1947,-0.1951]}],[{"header":{"parameterUnit":"m.s-1","parameterCategory":2,"la1":30.2991,"la2":30.254,"lo1":-89.0895,"lo2":-89.0444,"dy":0.0017,"dx":0.0017,"nx":28,"ny":28,"refTime":"2024-07-28T21:00:00:Z","depth":"2","parameterNumber":2,"parameterNumberName":"U-component_of_CURRENTS"},"data":[0,0,0,0,0,0,0,0,0,0,0,0,0,0,0,0,0,0,0,0,0,0,0,0,0,0,0,0,0,0,0,0,0,0,0,0,0,0,0,0,0,0,0,0,0,0,0,0,0,0,0,0,0,0,0,0,0,0,0.173,0.1731,0,0.1792,0.1793,0.1793,0.1791,0.179,0.179,0.1789,0.1789,0.1789,0.179,0,0,0,0,0,0,0,0,0,0,0,0,0,0.1606,0.1608,0.173,0.1731,0.1733,0.1792,0.1793,0.1793,0.1791,0.179,0.1789,0.1789,0.1789,0.1789,0.179,0,0,0,0,0,0,0,0,0,0,0,0,0,0.166,0.1609,0.173,0.1741,0.1743,0.1792,0.1793,0.1793,0.1791,0.179,0.1789,0.1789,0.1788,0.1789,0.179,0.1811,0,0,0.1792,0.1792,0,0,0,0,0,0,0,0,0.1657,0.1664,0.1738,0.174,0.1743,0.1786,0.1749,0.1798,0.1791,0.1769,0.1789,0.1788,0.1785,0.1786,0.1795,0.1811,0.1811,0.1792,0.1793,0.1793,0.1793,0,0,0,0,0,0,0,0.1653,0.1662,0.1751,0.174,0.1742,0.1742,0.1748,0.1758,0.1777,0.1771,0.1772,0.1784,0.1785,0.1795,0.1795,0.1811,0.1792,0.1793,0.1793,0.1794,0.1878,0.188,0,0,0,0,0,0,0.1654,0.1658,0.175,0.1754,0.1701,0.1745,0.1752,0.177,0.1778,0.178,0.1785,0.1784,0.1794,0.1794,0.1795,0.1863,0.1793,0.1794,0.1794,0.1876,0.1879,0.188,0,0,0,0,0,0,0.1651,0.1662,0.1747,0.1709,0.1721,0.1748,0.1769,0.1772,0.1785,0.179,0.179,0.1795,0.1793,0.1794,0.1821,0.1861,0.1794,0.1795,0.1874,0.1877,0.188,0.1973,0,0,0,0,0,0,0.1648,0.1661,0.1672,0.171,0.1723,0.1788,0.177,0.1774,0.1795,0.1795,0.1799,0.1798,0.1793,0.182,0.1822,0.1861,0.1795,0.1872,0.1875,0.1879,0.1967,0.1978,0.1987,0,0,0,0,0,0.1643,0.1668,0.1673,0.1684,0.1739,0.179,0.1797,0.181,0.1797,0.1815,0.1819,0.1798,0.1842,0.1822,0.1824,0.1865,0.187,0.1874,0.1878,0.1963,0.1976,0.1987,0,0,0,0,0,0,0.1623,0.1671,0.1677,0.1716,0.1754,0.1791,0.1811,0.1816,0.1834,0.1829,0.1821,0.1823,0.1864,0.1849,0.1827,0.1898,0.1853,0.1857,0.1916,0.1929,0.1939,0.1946,0.1796,0,0,0,0,0,0.1624,0.1655,0.17,0.1732,0.1752,0.178,0.1799,0.1812,0.1835,0.1842,0.1847,0.1855,0.1883,0.1892,0.1907,0.1943,0.1993,0.197,0.198,0.1989,0.1996,0.2121,0.2144,0.1894,0.1894,0.1894,0,0,0.1631,0.1658,0.1679,0.173,0.1757,0.1798,0.1789,0.1829,0.186,0.1839,0.1877,0.1891,0.1901,0.1949,0.1966,0.1941,0.2092,0.1994,0.2001,0.2004,0.2128,0.2153,0.2175,0.1896,0.1896,0.1895,0,0,0.1667,0.168,0.1722,0.175,0.1796,0.1814,0.1827,0.1869,0.1885,0.1926,0.1928,0.1967,0.1989,0.202,0.2035,0.2107,0.2144,0.211,0.2168,0.2289,0.2312,0.2332,0.2459,0.2489,0.2113,0.2114,0.2114,0,0.1682,0.173,0.1743,0.1785,0.1816,0.1823,0.1876,0.1894,0.1937,0.1971,0.1945,0.2032,0.2027,0.2117,0.2138,0.2132,0.2214,0.2122,0.2306,0.2327,0.2346,0.247,0.2503,0.2118,0.2118,0.2117,0.2117,0,0.1749,0.1783,0.1809,0.1862,0.1891,0.1938,0.1966,0.1996,0.2006,0.2035,0.2119,0.2133,0.2199,0.2197,0.2184,0.232,0.2342,0.231,0.228,0.2377,0.2502,0.2534,0.2126,0.2124,0.2122,0.2121,0,0,0.1836,0.1856,0.1879,0.1901,0.1938,0.1979,0.2022,0.2092,0.2158,0.2174,0.2282,0.2303,0.2331,0.235,0.2359,0.2433,0.2632,0.2431,0.2435,0.2566,0.2937,0.2833,0.2858,0.2652,0.2657,0.2661,0.2983,0,0.1907,0.1979,0.1979,0.2054,0.209,0.2098,0.2153,0.2203,0.2247,0.2346,0.2368,0.247,0.2387,0.2459,0.2518,0.2612,0.2717,0.2549,0.2814,0.2822,0.2725,0.289,0.2511,0.2754,0.3015,0.302,0.3024,0,0.1999,0.203,0.2107,0.2151,0.2178,0.2227,0.2331,0.2385,0.2488,0.2531,0.2612,0.265,0.277,0.269,0.2897,0.2806,0.2887,0.2933,0.2947,0.2833,0.2776,0.2692,0.2803,0.3078,0.3073,0.3069,0.3066,0,0.2061,0.2131,0.2191,0.2207,0.2257,0.2315,0.2368,0.2459,0.2519,0.2687,0.2762,0.289,0.2987,0.3095,0.3145,0.3079,0.3371,0.33,0.3287,0.3282,0.2997,0.2956,0.3481,0.348,0.348,0.3479,0.3478,0,0.2125,0.2178,0.2232,0.2263,0.235,0.2393,0.2512,0.2575,0.2706,0.2788,0.2885,0.2975,0.3095,0.3232,0.3274,0.3384,0.3496,0.3346,0.3371,0.3019,0.2978,0.3261,0.3231,0.3491,0.3488,0.3486,0.3484,0,0.2139,0.2185,0.2245,0.2333,0.2365,0.2436,0.2542,0.2613,0.2767,0.289,0.2957,0.3113,0.3298,0.3401,0.3606,0.3551,0.3669,0.3678,0.3254,0.3221,0.3479,0.345,0.3747,0.3746,0.3746,0.3745,0.3745,0,0.2129,0.216,0.2268,0.2289,0.2322,0.2424,0.2466,0.2617,0.2682,0.2928,0.2974,0.3224,0.3306,0.3574,0.3535,0.3656,0.3747,0.341,0.3181,0.3518,0.3514,0.3486,0.3459,0.2873,0.2865,0.2859,0.2854,0,0.2063,0.212,0.2152,0.2224,0.2278,0.2338,0.2433,0.2494,0.2671,0.2794,0.297,0.309,0.3276,0.3201,0.3336,0.3327,0.335,0.3288,0.3814,0.2832,0.2711,0.27,0.27,0.2799,0.2805,0.2809,0.2812,0.2814,0.1978,0.1997,0.2055,0.2123,0.2179,0.2243,0.2287,0.2373,0.2487,0.2622,0.2826,0.2896,0.2894,0.2885,0.287,0.2864,0.3064,0.294,0.2953,0.2974,0.2783,0.2664,0.2711,0.2715,0.272,0.2723,0.2726,0,0.1854,0.1906,0.1935,0.2015,0.2058,0.2149,0.2236,0.2267,0.2355,0.2406,0.2549,0.2347,0.2304,0.2393,0.2239,0.2261,0.2171,0.2245,0.2079,0.2133,0.2181,0.1943,0.1653,0.1651,0.1649,0.1647,0,0,0.1778,0.1785,0.1838,0.1885,0.196,0.2007,0.2068,0.2108,0.2144,0.2062,0.2017,0.216,0.2234,0.1884,0.1845,0.1748,0.1933,0.1683,0.2521,0.2372,0.2418,0.2541,0.2231,0,0,0,0,0]},{"header":{"parameterUnit":"m.s-1","parameterCategory":2,"la1":30.2991,"la2":30.254,"lo1":-89.0895,"lo2":-89.0444,"dy":0.0017,"dx":0.0017,"nx":28,"ny":28,"refTime":"2024-07-28T21:00:00:Z","depth":"2","parameterNumber":3,"parameterNumberName":"V-component_of_CURRENTS"},"data":[0,0,0,0,0,0,0,0,0,0,0,0,0,0,0,0,0,0,0,0,0,0,0,0,0,0,0,0,0,0,0,0,0,0,0,0,0,0,0,0,0,0,0,0,0,0,0,0,0,0,0,0,0,0,0,0,0,0,0.0223,0.0223,0,0.0176,0.0176,0.0175,0.0114,0.0112,0.0111,0.011,0.0001,-0.0,-0.0002,0,0,0,0,0,0,0,0,0,0,0,0,0,0.0297,0.0296,0.0224,0.0223,0.0222,0.0176,0.0175,0.0175,0.0114,0.0112,0.0111,0.0109,0.0002,-0.0,-0.0002,0,0,0,0,0,0,0,0,0,0,0,0,0,0.0261,0.0296,0.0224,0.0184,0.0179,0.0176,0.0175,0.0175,0.0114,0.0112,0.011,0.0109,0.0003,0.0,-0.0002,0.0019,0,0,-0.001,-0.0012,0,0,0,0,0,0,0,0,0.0263,0.0259,0.019,0.0186,0.0182,0.0146,0.0161,0.0119,0.0115,0.0142,0.011,0.0108,0.0044,0.0038,0.0038,0.0014,0.0009,-0.0011,-0.0012,-0.0013,-0.0014,0,0,0,0,0,0,0,0.0266,0.0261,0.0207,0.019,0.0184,0.018,0.0173,0.0154,0.0105,0.0139,0.0134,0.0125,0.0041,0.004,0.0034,0.0008,-0.0011,-0.0013,-0.0014,-0.0015,-0.0081,-0.0082,0,0,0,0,0,0,0.0266,0.0263,0.0209,0.0206,0.0216,0.018,0.0172,0.0162,0.0106,0.0096,0.0127,0.0122,0.0046,0.0038,0.003,-0.0016,-0.0013,-0.0016,-0.0017,-0.0081,-0.0081,-0.0082,0,0,0,0,0,0,0.0268,0.0262,0.0211,0.0231,0.0224,0.018,0.0169,0.0162,0.0126,0.0097,0.0085,0.0094,0.0044,0.0034,0.0004,-0.0018,-0.0017,-0.0019,-0.0081,-0.0081,-0.0082,-0.0065,0,0,0,0,0,0,0.0271,0.0263,0.025,0.0231,0.0223,0.0199,0.0171,0.0162,0.0124,0.0117,0.0066,0.0056,0.0042,0.0008,0.0001,-0.0022,-0.0021,-0.0081,-0.0081,-0.0081,-0.0065,-0.0064,-0.0064,0,0,0,0,0,0.0274,0.0263,0.0249,0.0242,0.0208,0.0199,0.0195,0.016,0.0124,0.0118,0.0085,0.0056,-0.0,0.0006,-0.0002,-0.0026,-0.0081,-0.0081,-0.0081,-0.0065,-0.0064,-0.0064,0,0,0,0,0,0,0.0266,0.0256,0.024,0.0219,0.0206,0.0187,0.017,0.0145,0.0115,0.0095,0.0062,0.0052,0.0014,-0.0003,0.0005,-0.0046,-0.0049,-0.0051,-0.0034,-0.0034,-0.0033,-0.0036,-0.0023,0,0,0,0,0,0.0265,0.0258,0.0246,0.0221,0.0217,0.0188,0.0174,0.0152,0.0127,0.0109,0.0071,0.0034,0.0015,-0.0008,-0.0028,-0.0051,-0.008,-0.0075,-0.0074,-0.0074,-0.0081,-0.0132,-0.0136,-0.0083,-0.0083,-0.0083,0,0,0.0242,0.0242,0.0228,0.0221,0.0203,0.0205,0.0174,0.0148,0.0138,0.0103,0.0061,0.0033,0.001,-0.0013,-0.0033,-0.0037,-0.0102,-0.0074,-0.0073,-0.0081,-0.0133,-0.0138,-0.0143,-0.0083,-0.0083,-0.0083,0,0,0.0213,0.0206,0.0196,0.0204,0.019,0.019,0.0177,0.0149,0.0123,0.0097,0.0067,0.0031,-0.0011,-0.0025,-0.0037,-0.0046,-0.0095,-0.0067,-0.0071,-0.012,-0.0125,-0.013,-0.0166,-0.0174,-0.007,-0.0069,-0.0069,0,0.0172,0.018,0.0188,0.0197,0.0194,0.0183,0.0174,0.0169,0.0127,0.0105,0.008,0.0013,-0.0013,-0.0032,-0.0039,-0.0046,-0.0083,-0.007,-0.012,-0.0125,-0.0131,-0.0167,-0.0176,-0.0069,-0.0069,-0.0069,-0.0069,0,0.016,0.0163,0.0159,0.0176,0.018,0.0172,0.0178,0.0161,0.0124,0.0106,0.0055,0.0027,-0.0017,-0.0031,-0.004,-0.0088,-0.0105,-0.0111,-0.0122,-0.0135,-0.0172,-0.0182,-0.0068,-0.0068,-0.0068,-0.0068,0,0,0.0065,0.013,0.0125,0.0153,0.0169,0.0181,0.017,0.0162,0.0163,0.0103,0.0081,0.0028,-0.001,-0.0025,-0.0049,-0.0093,-0.0158,-0.0126,-0.0129,-0.0162,-0.0272,-0.0319,-0.0335,-0.0185,-0.0187,-0.0188,-0.0281,0,0.0035,0.0072,0.0097,0.0126,0.0155,0.0162,0.0172,0.0167,0.0151,0.0142,0.0085,0.0072,0.0003,-0.0006,-0.0076,-0.0112,-0.0186,-0.0133,-0.0255,-0.0258,-0.0299,-0.0348,-0.0275,-0.0355,-0.0291,-0.0292,-0.0294,0,0.0027,0.0059,0.0086,0.0151,0.0156,0.0176,0.0203,0.021,0.0204,0.0184,0.0131,0.0102,0.0043,-0.0007,-0.0146,-0.0115,-0.0216,-0.0262,-0.0267,-0.0327,-0.0325,-0.0334,-0.0376,-0.0311,-0.0309,-0.0308,-0.0307,0,0.0027,0.006,0.0092,0.0113,0.0174,0.018,0.0202,0.0215,0.025,0.0231,0.0257,0.0145,0.0145,-0.0016,-0.0137,-0.0151,-0.0283,-0.0304,-0.0453,-0.0456,-0.0425,-0.0423,-0.0448,-0.0448,-0.0448,-0.0447,-0.0447,0,0.0032,0.0064,0.0108,0.0143,0.0195,0.0214,0.0272,0.0278,0.0313,0.0375,0.029,0.0314,0.014,0.005,-0.012,-0.0311,-0.0285,-0.0474,-0.0496,-0.0417,-0.0413,-0.0397,-0.0389,-0.0451,-0.045,-0.0449,-0.0449,0,0.007,0.0086,0.0153,0.0198,0.0223,0.0273,0.0362,0.041,0.0431,0.0514,0.0521,0.0461,0.0329,0.0143,-0.0067,-0.0246,-0.0434,-0.0519,-0.041,-0.042,-0.0585,-0.0576,-0.071,-0.0712,-0.0715,-0.0716,-0.0718,0,0.0108,0.0145,0.0215,0.0263,0.0294,0.0371,0.0431,0.0472,0.0539,0.0606,0.0652,0.0568,0.051,0.0185,-0.0118,-0.0428,-0.0472,-0.0589,-0.0626,-0.0611,-0.0618,-0.0605,-0.0593,-0.0566,-0.0566,-0.0566,-0.0566,0,0.0186,0.0203,0.0252,0.0347,0.0419,0.0517,0.0604,0.0682,0.074,0.0813,0.0872,0.0837,0.0541,0.0254,-0.0166,-0.0373,-0.0537,-0.0609,-0.0611,-0.052,-0.0486,-0.0489,-0.048,-0.0568,-0.0568,-0.0568,-0.0568,-0.0567,0.0246,0.0295,0.0352,0.0445,0.0536,0.0657,0.0762,0.0861,0.099,0.1107,0.1044,0.0996,0.0624,0.009,-0.0223,-0.0547,-0.0584,-0.0708,-0.0702,-0.0697,-0.0674,-0.0647,-0.0753,-0.0754,-0.0755,-0.0756,-0.0756,0,0.0329,0.0368,0.045,0.0577,0.07,0.0722,0.0883,0.1007,0.1187,0.12,0.1261,0.0915,0.0579,0.018,-0.0293,-0.0618,-0.0594,-0.0708,-0.06,-0.0598,-0.0596,-0.0563,-0.0616,-0.0616,-0.0616,-0.0616,0,0,0.0378,0.046,0.0496,0.0705,0.0799,0.0982,0.1084,0.126,0.1328,0.1362,0.1285,0.1143,0.0626,0.0294,-0.0107,-0.0342,-0.0388,-0.0383,-0.0467,-0.0289,-0.0282,-0.0576,-0.0521,0,0,0,0,0]}],[{"header":{"parameterUnit":"m.s-1","parameterCategory":2,"la1":30.2991,"la2":30.254,"lo1":-89.0895,"lo2":-89.0444,"dy":0.0017,"dx":0.0017,"nx":28,"ny":28,"refTime":"2024-07-28T21:00:00:Z","depth":"4","parameterNumber":2,"parameterNumberName":"U-component_of_CURRENTS"},"data":[0,0,0,0,0,0,0,0,0,0,0,0,0,0,0,0,0,0,0,0,0,0,0,0,0,0,0,0,0,0,0,0,0,0,0,0,0,0,0,0,0,0,0,0,0,0,0,0,0,0,0,0,0,0,0,0,0,0,0.0656,0.0657,0,0.0725,0.0725,0.0726,0.0776,0.0776,0.0777,0.0777,0.0851,0.0852,0.0853,0,0,0,0,0,0,0,0,0,0,0,0,0,0.0571,0.0572,0.0656,0.0657,0.0658,0.0724,0.0725,0.0726,0.0776,0.0776,0.0777,0.0778,0.085,0.0852,0.0853,0,0,0,0,0,0,0,0,0,0,0,0,0,0.0618,0.0572,0.0655,0.0692,0.0696,0.0724,0.0725,0.0726,0.0775,0.0776,0.0777,0.0778,0.085,0.0852,0.0854,0.0849,0,0,0.086,0.0861,0,0,0,0,0,0,0,0,0.0616,0.0621,0.0685,0.0689,0.0694,0.0744,0.0722,0.0768,0.0775,0.0743,0.0777,0.0778,0.0816,0.0821,0.0829,0.0852,0.0855,0.086,0.0862,0.0862,0.0863,0,0,0,0,0,0,0,0.0612,0.0619,0.0681,0.0687,0.0692,0.0706,0.0714,0.0731,0.0772,0.0746,0.075,0.0761,0.0818,0.0827,0.0831,0.0857,0.086,0.0862,0.0863,0.0864,0.0975,0.0977,0,0,0,0,0,0,0.0607,0.0615,0.0679,0.0683,0.0658,0.0707,0.0715,0.0726,0.0772,0.0781,0.076,0.0763,0.0823,0.0829,0.0834,0.094,0.0862,0.0864,0.0866,0.0973,0.0975,0.0977,0,0,0,0,0,0,0.0604,0.0612,0.0676,0.0652,0.0662,0.0708,0.0719,0.0727,0.0772,0.0783,0.0791,0.0802,0.0824,0.0831,0.0873,0.0939,0.0865,0.0867,0.0971,0.0974,0.0976,0.1083,0,0,0,0,0,0,0.0602,0.061,0.0633,0.0652,0.0663,0.0702,0.0718,0.0727,0.0776,0.0781,0.0821,0.0826,0.0825,0.087,0.0875,0.0941,0.0869,0.0969,0.0972,0.0975,0.1077,0.1089,0.1098,0,0,0,0,0,0.0598,0.0613,0.0633,0.0642,0.0687,0.0703,0.071,0.0744,0.0777,0.079,0.0825,0.0827,0.0894,0.0873,0.0879,0.0947,0.0968,0.0972,0.0975,0.1072,0.1086,0.1098,0,0,0,0,0,0,0.0587,0.062,0.0643,0.0669,0.0692,0.0712,0.074,0.0765,0.0805,0.0829,0.0841,0.0848,0.0913,0.0905,0.0881,0.0985,0.0935,0.094,0.1007,0.102,0.1031,0.1046,0.0871,0,0,0,0,0,0.0595,0.0617,0.0646,0.0669,0.0688,0.0725,0.0747,0.0771,0.0801,0.0822,0.0857,0.0894,0.0926,0.0953,0.0972,0.1025,0.0994,0.1073,0.1084,0.1093,0.1108,0.11,0.1111,0.099,0.099,0.099,0,0,0.0596,0.062,0.0633,0.0669,0.0699,0.0724,0.0741,0.0783,0.0824,0.0823,0.0905,0.0932,0.0946,0.1008,0.1038,0.1017,0.1109,0.1098,0.1106,0.1116,0.1105,0.1117,0.1127,0.0992,0.0992,0.0991,0,0,0.06,0.0636,0.0658,0.0681,0.0732,0.0749,0.077,0.0821,0.0869,0.0941,0.0954,0.1003,0.1076,0.1083,0.1099,0.1174,0.1161,0.1211,0.1289,0.1282,0.1292,0.13,0.1267,0.1272,0.1223,0.1223,0.1223,0,0.0607,0.0641,0.0665,0.0694,0.0733,0.0765,0.0807,0.0842,0.0906,0.0965,0.0984,0.1102,0.1105,0.1169,0.1211,0.1199,0.1199,0.1242,0.1296,0.1304,0.131,0.1274,0.1278,0.1228,0.1228,0.1227,0.1227,0,0.0618,0.0663,0.068,0.073,0.0768,0.0807,0.0861,0.0926,0.1008,0.1054,0.1171,0.1186,0.1261,0.1276,0.1281,0.135,0.1334,0.1305,0.1264,0.1329,0.1287,0.1289,0.1236,0.1234,0.1233,0.1231,0,0,0.0596,0.0676,0.0688,0.0741,0.0806,0.0839,0.0923,0.1013,0.1093,0.1177,0.1285,0.1352,0.1395,0.1413,0.1422,0.1428,0.1465,0.1422,0.1418,0.139,0.1461,0.1397,0.1392,0.1474,0.1475,0.1476,0.1409,0,0.0613,0.0674,0.0721,0.0803,0.0849,0.0928,0.1003,0.1091,0.1184,0.1283,0.1339,0.1429,0.1435,0.15,0.1512,0.149,0.1481,0.1486,0.1401,0.1398,0.1334,0.1395,0.148,0.141,0.141,0.141,0.141,0,0.0618,0.0665,0.0755,0.0878,0.0913,0.0977,0.1137,0.1206,0.1328,0.1411,0.1513,0.1556,0.1619,0.1592,0.1593,0.1619,0.1562,0.1515,0.151,0.1418,0.1339,0.1332,0.1413,0.1413,0.1412,0.1412,0.1412,0,0.0595,0.0699,0.0787,0.0823,0.095,0.1053,0.1134,0.1267,0.1349,0.1496,0.1572,0.1651,0.1706,0.1677,0.1612,0.1638,0.1556,0.1553,0.1418,0.1411,0.1438,0.143,0.151,0.1511,0.1511,0.1511,0.1511,0,0.0588,0.0657,0.0799,0.0843,0.0968,0.1075,0.1217,0.1316,0.145,0.1519,0.1643,0.1654,0.1742,0.1707,0.1634,0.1533,0.1566,0.1446,0.1402,0.1482,0.148,0.1438,0.1431,0.1508,0.1509,0.1509,0.151,0,0.0535,0.0629,0.0728,0.0894,0.0962,0.1053,0.1235,0.1313,0.1469,0.1562,0.1618,0.1698,0.1685,0.1689,0.161,0.1554,0.1442,0.1363,0.1431,0.1389,0.1305,0.1304,0.1283,0.128,0.1278,0.1276,0.1275,0,0.0512,0.0563,0.0738,0.0806,0.0896,0.1042,0.1131,0.1304,0.1358,0.151,0.151,0.1591,0.162,0.1442,0.1452,0.1364,0.1318,0.128,0.1344,0.1329,0.1288,0.129,0.1292,0.1271,0.1271,0.127,0.127,0,0.0461,0.0542,0.0612,0.0736,0.0856,0.0952,0.1084,0.1097,0.127,0.1435,0.1395,0.1411,0.1389,0.1349,0.1317,0.1211,0.1347,0.1258,0.1264,0.1324,0.1314,0.1276,0.1281,0.1262,0.1263,0.1264,0.1264,0,0.042,0.0443,0.0554,0.065,0.0782,0.0831,0.0899,0.0961,0.1042,0.1231,0.1158,0.122,0.131,0.1253,0.1149,0.1153,0.117,0.1147,0.1159,0.1168,0.1173,0.1147,0.1017,0,0,0,0,0,0.0373,0.0391,0.0464,0.0557,0.0671,0.076,0.0862,0.0917,0.1055,0.1014,0.1116,0.1077,0.1081,0.1039,0.1027,0.1108,0.116,0.1091,0.1136,0.1221,0.1229,0.1252,0,0,0,0,0,0,0.0348,0.0401,0.0421,0.0474,0.0524,0.0634,0.069,0.0771,0.0735,0.0883,0.0842,0.1042,0.0994,0.1091,0.1013,0.1029,0.1041,0.1159,0.1157,0.1216,0.1224,0.1231,0.1257,0,0,0,0,0]},{"header":{"parameterUnit":"m.s-1","parameterCategory":2,"la1":30.2991,"la2":30.254,"lo1":-89.0895,"lo2":-89.0444,"dy":0.0017,"dx":0.0017,"nx":28,"ny":28,"refTime":"2024-07-28T21:00:00:Z","depth":"4","parameterNumber":3,"parameterNumberName":"V-component_of_CURRENTS"},"data":[0,0,0,0,0,0,0,0,0,0,0,0,0,0,0,0,0,0,0,0,0,0,0,0,0,0,0,0,0,0,0,0,0,0,0,0,0,0,0,0,0,0,0,0,0,0,0,0,0,0,0,0,0,0,0,0,0,0,0.005,0.005,0,-0.0,-0.0001,-0.0002,-0.0025,-0.0024,-0.0024,-0.0024,-0.0094,-0.0096,-0.0098,0,0,0,0,0,0,0,0,0,0,0,0,0,0.0098,0.0097,0.005,0.005,0.0049,0.0,-0.0001,-0.0002,-0.0025,-0.0024,-0.0024,-0.0024,-0.0093,-0.0095,-0.0098,0,0,0,0,0,0,0,0,0,0,0,0,0,0.0063,0.0097,0.005,0.0034,0.0032,0.0,-0.0001,-0.0002,-0.0025,-0.0024,-0.0024,-0.0023,-0.0092,-0.0095,-0.0098,-0.0127,0,0,-0.0108,-0.0109,0,0,0,0,0,0,0,0,0.0065,0.0061,0.0037,0.0035,0.0033,-0.0003,-0.0009,-0.0044,-0.0025,-0.0006,-0.0024,-0.0023,-0.0064,-0.0069,-0.0083,-0.013,-0.0133,-0.0108,-0.011,-0.0112,-0.0113,0,0,0,0,0,0,0,0.0068,0.0063,0.0027,0.0037,0.0034,0.002,0.0015,-0.0016,-0.0039,-0.0008,-0.0009,-0.001,-0.0065,-0.008,-0.0085,-0.0134,-0.0108,-0.0111,-0.0113,-0.0114,-0.0235,-0.0237,0,0,0,0,0,0,0.008,0.0065,0.0029,0.0026,0.0054,0.0019,0.0014,0.0006,-0.0039,-0.0044,-0.001,-0.0011,-0.0075,-0.0081,-0.0088,-0.0139,-0.0112,-0.0115,-0.0117,-0.0234,-0.0236,-0.0237,0,0,0,0,0,0,0.0081,0.0077,0.0031,0.0047,0.0041,0.0018,0.0009,0.0005,-0.0008,-0.004,-0.0046,-0.0018,-0.0075,-0.0083,-0.0124,-0.0141,-0.0116,-0.0119,-0.0233,-0.0235,-0.0236,-0.0233,0,0,0,0,0,0,0.0083,0.0078,0.0075,0.0048,0.0041,0.001,0.0009,0.0003,-0.0009,-0.001,-0.0049,-0.0055,-0.0075,-0.012,-0.0128,-0.0145,-0.0122,-0.0231,-0.0234,-0.0236,-0.0231,-0.0234,-0.0237,0,0,0,0,0,0.0084,0.0079,0.0074,0.007,0.0037,0.001,0.0004,-0.0012,-0.0009,-0.0021,-0.005,-0.0053,-0.0141,-0.0123,-0.0132,-0.0151,-0.023,-0.0233,-0.0236,-0.023,-0.0233,-0.0237,0,0,0,0,0,0,0.0102,0.0076,0.007,0.0059,0.0036,0.0007,-0.0001,-0.0011,-0.0043,-0.0042,-0.007,-0.0079,-0.0129,-0.0141,-0.0121,-0.0195,-0.0186,-0.0191,-0.0179,-0.0182,-0.0185,-0.015,-0.0124,0,0,0,0,0,0.0105,0.0092,0.0066,0.0057,0.0048,0.0024,0.0012,-0.0001,-0.0029,-0.0041,-0.007,-0.0105,-0.015,-0.0163,-0.0207,-0.0239,-0.0256,-0.0258,-0.0261,-0.0263,-0.0242,-0.0296,-0.0301,-0.0247,-0.0247,-0.0247,0,0,0.0111,0.0095,0.0089,0.0059,0.0043,0.0025,0.0017,-0.0001,-0.0019,-0.0045,-0.008,-0.0122,-0.0165,-0.0212,-0.0233,-0.0219,-0.0293,-0.0267,-0.0268,-0.0246,-0.03,-0.0305,-0.0309,-0.0249,-0.0248,-0.0248,0,0,0.012,0.0102,0.0096,0.0073,0.0049,0.0028,0.0025,-0.0009,-0.0025,-0.0062,-0.0097,-0.0144,-0.0194,-0.0236,-0.0261,-0.0303,-0.0317,-0.0318,-0.029,-0.0344,-0.0348,-0.0352,-0.0396,-0.0403,-0.0307,-0.0307,-0.0307,0,0.0136,0.0121,0.009,0.0076,0.0067,0.0032,0.0027,-0.0006,-0.0051,-0.0062,-0.0069,-0.0165,-0.0206,-0.0266,-0.028,-0.0309,-0.0331,-0.0272,-0.0346,-0.035,-0.0354,-0.0397,-0.0406,-0.0307,-0.0307,-0.0307,-0.0307,0,0.0135,0.0125,0.0119,0.009,0.0069,0.0057,0.0015,-0.001,-0.0029,-0.0058,-0.0116,-0.018,-0.0213,-0.026,-0.0277,-0.0332,-0.0338,-0.0353,-0.033,-0.0359,-0.0404,-0.0413,-0.0307,-0.0307,-0.0307,-0.0307,0,0,0.0173,0.0133,0.0134,0.0132,0.008,0.0071,0.0031,-0.0002,-0.0008,-0.0072,-0.0089,-0.0182,-0.019,-0.0218,-0.0264,-0.032,-0.0383,-0.0332,-0.0335,-0.0361,-0.049,-0.0431,-0.0436,-0.0405,-0.0406,-0.0407,-0.0514,0,0.0192,0.0188,0.0154,0.0149,0.0143,0.0098,0.0076,0.0034,-0.0004,-0.0038,-0.0114,-0.0144,-0.0181,-0.0183,-0.0249,-0.036,-0.0403,-0.0351,-0.0468,-0.0471,-0.0405,-0.0443,-0.0411,-0.0521,-0.0523,-0.0525,-0.0526,0,0.0202,0.0201,0.0217,0.0195,0.0193,0.02,0.0175,0.0147,0.0076,0.005,0.0001,-0.0053,-0.0139,-0.0159,-0.033,-0.0291,-0.0363,-0.0455,-0.0461,-0.0405,-0.0428,-0.0486,-0.0542,-0.0541,-0.0539,-0.0538,-0.0537,0,0.025,0.0239,0.0269,0.026,0.0233,0.026,0.0256,0.0201,0.0178,0.0134,0.011,0.0005,-0.0041,-0.0164,-0.0317,-0.0317,-0.0516,-0.0542,-0.0562,-0.056,-0.058,-0.0575,-0.0635,-0.0635,-0.0634,-0.0634,-0.0634,0,0.0268,0.0282,0.032,0.0334,0.0377,0.035,0.0379,0.0351,0.0308,0.0273,0.0199,0.0128,-0.0042,-0.0177,-0.0307,-0.0456,-0.0495,-0.0553,-0.0581,-0.058,-0.0573,-0.0588,-0.0581,-0.0638,-0.0637,-0.0636,-0.0636,0,0.0282,0.0305,0.0338,0.0377,0.0403,0.0444,0.0458,0.0454,0.0434,0.0383,0.038,0.0214,0.0051,-0.0122,-0.0348,-0.0429,-0.0587,-0.0617,-0.0594,-0.062,-0.0601,-0.0593,-0.0661,-0.066,-0.0659,-0.0658,-0.0657,0,0.0277,0.031,0.0387,0.0423,0.0458,0.0516,0.0535,0.0528,0.0509,0.0409,0.037,0.0231,0.0113,-0.0178,-0.0346,-0.0554,-0.0573,-0.0633,-0.0621,-0.0582,-0.0603,-0.0596,-0.059,-0.0656,-0.0655,-0.0655,-0.0655,0,0.0268,0.0323,0.035,0.0439,0.0504,0.053,0.0572,0.0554,0.0519,0.051,0.0361,0.0223,0.0037,-0.0182,-0.0308,-0.0473,-0.0593,-0.0623,-0.0627,-0.0616,-0.0576,-0.0596,-0.0591,-0.0651,-0.0652,-0.0652,-0.0652,0,0.0262,0.0285,0.0356,0.0419,0.0497,0.052,0.0533,0.051,0.0492,0.0411,0.035,0.0165,0.0063,-0.0142,-0.0294,-0.0404,-0.0441,-0.0478,-0.049,-0.0496,-0.0402,-0.0325,-0.0343,0,0,0,0,0,0.024,0.026,0.0318,0.0382,0.0459,0.051,0.0531,0.0528,0.0509,0.0423,0.0398,0.0235,0.0015,-0.0119,-0.022,-0.0283,-0.0464,-0.0404,-0.0514,-0.0631,-0.0635,-0.0546,0,0,0,0,0,0,0.0223,0.027,0.0296,0.035,0.0395,0.0463,0.0479,0.0462,0.0407,0.038,0.0249,0.0239,0.0007,0.0088,-0.0212,-0.0249,-0.0327,-0.0493,-0.0495,-0.0629,-0.0633,-0.0636,-0.0546,0,0,0,0,0]}]]